Content
SEND FEEDBACK

Daily
Averages
Monthly
Summary
United States of America

EAGLE, COLORADO


Home > North America > United States > Colorado
Elevation: 6539 feet     Latitude: 39 38N     Longitude: 106 54W

WEATHER
 
SELECT A DAY
Number of Records: 376,578;   Date Range: 1/1/95 - 7/7/14
 
SHARE

PRINT THIS DATA

[ ← Previous Day ]
WEATHER ALMANAC - JANUARY 31, 2013
[ Next Day → ]
[ °C ]   °F
Weather ElementAverageHighLow
Temperature28.2 °F35.6 °F (12:50 pm)21.2 °F (8:50 am)
Dewpoint20.7 °F23 °F (11:35 pm)19.4 °F (12:35 am)
Humidity74.4 %93 % (8:50 am)52 % (12:50 pm)
Barometer30.14 in30.23 in (10:50 am)30.06 in (12:35 am)
Wind Speed9.3 mph26.5 mph (11:50 am)
Wind Gust17.3 mph (1:15 am)
Weather ElementAverage
Visibility10 mi
Wind DirectionSSW (206.6 °)

Weather ElementTotal
Precipitation---
Heating Degree Days36.6 (Base 65)
Averaged from 32 records on January 31, 2013
WEATHER CONDITIONS BREAKOUT
WIND DIRECTION BREAKOUT
WEATHER BY HOUR - JANUARY 31, 2013
[ °C ]   °F
Local TimeTemperatureDewpointHumidityBarometerVisibilityWind DirectionWind SpeedGust SpeedPrecipitationEventsConditions
12:35 AM26.6 °F19.4 °F74 %30.06 in10.0 miWSW (250°)10.4 mphOvercast
12:55 AM26.6 °F21.2 °F80 %30.06 in10.0 miWest (280°)6.9 mphOvercast
1:15 AM26.6 °F21.2 °F80 %30.07 in10.0 miNW (310°)4.6 mph17.3 mphOvercast
1:55 AM26.6 °F21.2 °F80 %30.06 in10.0 miWest (280°)4.6 mphOvercast
2:15 AM26.6 °F21.2 °F80 %30.07 in10.0 miCalmOvercast
2:35 AM28.4 °F21.2 °F74 %30.07 in10.0 miWSW (240°)11.5 mph16.1 mphMostly Cloudy
2:55 AM26.6 °F21.2 °F80 %30.07 in10.0 miNW (320°)6.9 mphOvercast
3:15 AM26.6 °F21.2 °F80 %30.06 in10.0 miWest (280°)10.4 mph16.1 mphOvercast
3:55 AM26.6 °F19.4 °F74 %30.09 in10.0 miWNW (300°)5.8 mphOvercast
4:15 AM26.6 °F21.2 °F80 %30.10 in10.0 miWNW (290°)5.8 mphOvercast
4:35 AM26.6 °F21.2 °F80 %30.10 in10.0 miWNW (300°)5.8 mphOvercast
4:55 AM26.6 °F21.2 °F80 %30.11 in10.0 miNW (310°)5.8 mphOvercast
5:15 AM26.6 °F21.2 °F80 %30.11 in10.0 miWNW (290°)10.4 mphOvercast
5:55 AM26.6 °F19.4 °F74 %30.12 in10.0 miWest (260°)8.1 mph16.1 mphOvercast
6:15 AM24.8 °F19.4 °F80 %30.12 in10.0 miWNW (290°)8.1 mphMostly Cloudy
6:35 AM24.8 °F21.2 °F86 %30.13 in10.0 miWNW (290°)10.4 mphMostly Cloudy
6:50 AM24.8 °F21.2 °F86 %30.14 in10.0 miCalmScattered Clouds
7:50 AM23.0 °F19.4 °F86 %30.17 in10.0 miCalmPartly Cloudy
8:50 AM21.2 °F19.4 °F93 %30.21 in10.0 miVariable6.9 mphPartly Cloudy
9:50 AM26.6 °F21.2 °F80 %30.22 in10.0 miVariable5.8 mphPartly Cloudy
10:50 AM33.8 °F19.4 °F56 %30.23 in10.0 miWSW (240°)21.9 mphScattered Clouds
11:50 AM33.8 °F19.4 °F56 %30.22 in10.0 miSW (230°)26.5 mphScattered Clouds
12:50 PM35.6 °F19.4 °F52 %30.21 in10.0 miWSW (240°)25.3 mphScattered Clouds
1:50 PM35.6 °F21.2 °F56 %30.19 in10.0 miWest (270°)20.7 mphScattered Clouds
2:58 PM35.6 °F21.2 °F56 %30.18 in10.0 miWest (280°)10.4 mphScattered Clouds
3:50 PM35.6 °F21.2 °F56 %30.17 in10.0 miWest (270°)10.4 mphScattered Clouds
4:50 PM33.8 °F19.4 °F56 %30.18 in10.0 miWest (260°)12.7 mphScattered Clouds
5:50 PM33.8 °F21.2 °F60 %30.20 in10.0 miSW (220°)13.8 mphScattered Clouds
10:50 PM26.6 °F21.2 °F80 %30.23 in10.0 miENE (70°)5.8 mphOvercast
11:15 PM26.6 °F21.2 °F80 %30.23 in10.0 miEast (80°)8.1 mphOvercast
11:35 PM26.6 °F23.0 °F86 %30.22 in10.0 miEast (80°)8.1 mphOvercast
11:55 PM26.6 °F21.2 °F80 %30.22 in10.0 miEast (80°)6.9 mphOvercast
Hourly data recorded from KEGE, located miles away from Eagle, Colorado







STORIES FROM OUR PARTNERS